Time,TemperatureF,DewpointF,PressureIn,WindDirection,WindDirectionDegrees,WindSpeedMPH,WindSpeedGustMPH,Humidity,HourlyPrecipIn,Conditions,Clouds,dailyrainin,SoftwareType,DateUTC
2013-05-06 00:01:00,61.6,29.8,30.13,SSE,148,2.0,4.0,30,0.00,,,0.00,Wunderground v.1.15,2013-05-06 04:01:00,
2013-05-06 00:02:00,61.6,30.6,30.13,SSE,148,1.0,4.0,31,0.00,,,0.00,Wunderground v.1.15,2013-05-06 04:02:00,
2013-05-06 00:05:00,61.3,30.4,30.13,SSE,148,1.0,4.0,31,0.00,,,0.00,Wunderground v.1.15,2013-05-06 04:05:00,
2013-05-06 00:07:00,61.3,31.2,30.13,SSE,148,4.0,4.0,32,0.00,,,0.00,Wunderground v.1.15,2013-05-06 04:07:00,
2013-05-06 00:09:00,61.3,30.4,30.13,SSE,148,4.0,4.0,31,0.00,,,0.00,Wunderground v.1.15,2013-05-06 04:09:00,
2013-05-06 00:15:00,61.2,31.1,30.14,SE,144,7.0,7.0,32,0.00,,,0.00,Wunderground v.1.15,2013-05-06 04:15:00,
2013-05-06 00:20:00,61.5,30.6,30.14,SE,142,4.0,5.0,31,0.00,,,0.00,Wunderground v.1.15,2013-05-06 04:20:00,
2013-05-06 00:26:00,61.3,30.4,30.14,SSE,147,5.0,7.0,31,0.00,,,0.00,Wunderground v.1.15,2013-05-06 04:26:00,
2013-05-06 00:32:00,61.2,30.3,30.14,SE,145,6.0,6.0,31,0.00,,,0.00,Wunderground v.1.15,2013-05-06 04:32:00,
2013-05-06 00:37:00,61.0,30.9,30.14,SE,143,6.0,11.0,32,0.00,,,0.00,Wunderground v.1.15,2013-05-06 04:37:00,
2013-05-06 00:42:00,60.9,30.8,30.14,SSE,147,5.0,10.0,32,0.00,,,0.00,Wunderground v.1.15,2013-05-06 04:42:00,
2013-05-06 00:48:00,60.5,30.5,30.14,SSE,159,7.0,11.0,32,0.00,,,0.00,Wunderground v.1.15,2013-05-06 04:48:00,
2013-05-06 00:54:00,60.5,30.5,30.14,SSE,155,10.0,10.0,32,0.00,,,0.00,Wunderground v.1.15,2013-05-06 04:54:00,
2013-05-06 01:00:00,60.2,31.0,30.14,SSE,149,10.0,10.0,33,0.00,,,0.00,Wunderground v.1.15,2013-05-06 05:00:00,
2013-05-06 01:06:00,59.9,31.4,30.14,SE,141,10.0,10.0,34,0.00,,,0.00,Wunderground v.1.15,2013-05-06 05:06:00,
2013-05-06 01:11:00,59.5,31.8,30.14,SE,135,6.0,7.0,35,0.00,,,0.00,Wunderground v.1.15,2013-05-06 05:11:00,
2013-05-06 01:17:00,59.2,32.2,30.14,SE,134,7.0,9.0,36,0.00,,,0.00,Wunderground v.1.15,2013-05-06 05:17:00,
2013-05-06 01:22:00,58.9,32.0,30.14,SE,132,5.0,7.0,36,0.00,,,0.00,Wunderground v.1.15,2013-05-06 05:22:00,
2013-05-06 01:28:00,58.6,32.4,30.14,SE,143,7.0,7.0,37,0.00,,,0.00,Wunderground v.1.15,2013-05-06 05:28:00,
2013-05-06 01:34:00,58.1,32.6,30.14,SE,146,5.0,7.0,38,0.00,,,0.00,Wunderground v.1.15,2013-05-06 05:34:00,
2013-05-06 01:39:00,58.1,31.9,30.14,SE,142,3.0,10.0,37,0.00,,,0.00,Wunderground v.1.15,2013-05-06 05:39:00,
2013-05-06 01:45:00,58.1,31.9,30.14,SE,143,7.0,10.0,37,0.00,,,0.00,Wunderground v.1.15,2013-05-06 05:45:00,
2013-05-06 01:50:00,58.3,32.1,30.14,SE,133,9.0,9.0,37,0.00,,,0.00,Wunderground v.1.15,2013-05-06 05:50:00,
2013-05-06 01:55:00,58.1,31.9,30.14,SSE,153,10.0,11.0,37,0.00,,,0.00,Wunderground v.1.15,2013-05-06 05:55:00,
2013-05-06 02:00:00,58.1,31.9,30.13,SSE,153,8.0,8.0,37,0.00,,,0.00,Wunderground v.1.15,2013-05-06 06:00:00,
2013-05-06 02:05:00,58.1,31.9,30.13,SSE,156,2.0,14.0,37,0.00,,,0.00,Wunderground v.1.15,2013-05-06 06:05:00,
2013-05-06 02:10:00,58.0,32.5,30.13,SE,135,7.0,7.0,38,0.00,,,0.00,Wunderground v.1.15,2013-05-06 06:10:00,
2013-05-06 02:15:00,57.6,32.2,30.13,SE,142,8.0,15.0,38,0.00,,,0.00,Wunderground v.1.15,2013-05-06 06:15:00,
2013-05-06 02:20:00,57.5,32.7,30.13,SE,142,7.0,11.0,39,0.00,,,0.00,Wunderground v.1.15,2013-05-06 06:20:00,
2013-05-06 02:25:00,57.3,32.5,30.13,SE,144,5.0,12.0,39,0.00,,,0.00,Wunderground v.1.15,2013-05-06 06:25:00,
2013-05-06 02:30:00,57.0,32.9,30.13,SE,134,3.0,7.0,40,0.00,,,0.00,Wunderground v.1.15,2013-05-06 06:30:00,
2013-05-06 02:36:00,57.2,33.1,30.13,SSE,150,6.0,13.0,40,0.00,,,0.00,Wunderground v.1.15,2013-05-06 06:36:00,
2013-05-06 02:41:00,57.2,33.1,30.13,SSE,147,11.0,11.0,40,0.00,,,0.00,Wunderground v.1.15,2013-05-06 06:41:00,
2013-05-06 02:46:00,56.9,32.8,30.13,SE,146,5.0,12.0,40,0.00,,,0.00,Wunderground v.1.15,2013-05-06 06:46:00,
2013-05-06 02:51:00,56.7,32.6,30.13,SE,145,9.0,13.0,40,0.00,,,0.00,Wunderground v.1.15,2013-05-06 06:51:00,
2013-05-06 02:56:00,56.7,33.2,30.13,SSE,160,6.0,13.0,41,0.00,,,0.00,Wunderground v.1.15,2013-05-06 06:56:00,
2013-05-06 03:01:00,56.6,33.2,30.13,South,169,7.0,9.0,41,0.00,,,0.00,Wunderground v.1.15,2013-05-06 07:01:00,
2013-05-06 03:06:00,56.6,33.2,30.13,SSE,151,5.0,10.0,41,0.00,,,0.00,Wunderground v.1.15,2013-05-06 07:06:00,
2013-05-06 03:11:00,56.6,33.8,30.13,SSE,159,4.0,7.0,42,0.00,,,0.00,Wunderground v.1.15,2013-05-06 07:11:00,
2013-05-06 03:16:00,56.6,33.8,30.13,SSE,150,10.0,14.0,42,0.00,,,0.00,Wunderground v.1.15,2013-05-06 07:16:00,
2013-05-06 03:21:00,56.6,33.8,30.13,SSE,156,7.0,12.0,42,0.00,,,0.00,Wunderground v.1.15,2013-05-06 07:21:00,
2013-05-06 03:27:00,56.6,33.8,30.14,SSE,147,4.0,16.0,42,0.00,,,0.00,Wunderground v.1.15,2013-05-06 07:27:00,
2013-05-06 03:32:00,56.3,34.1,30.14,SSE,148,3.0,9.0,43,0.00,,,0.00,Wunderground v.1.15,2013-05-06 07:32:00,
2013-05-06 03:37:00,56.2,34.6,30.14,SE,129,10.0,13.0,44,0.00,,,0.00,Wunderground v.1.15,2013-05-06 07:37:00,
2013-05-06 03:42:00,56.0,34.4,30.14,SE,139,9.0,10.0,44,0.00,,,0.00,Wunderground v.1.15,2013-05-06 07:42:00,
2013-05-06 03:47:00,55.9,34.8,30.14,SE,139,5.0,11.0,45,0.00,,,0.00,Wunderground v.1.15,2013-05-06 07:47:00,
2013-05-06 03:52:00,55.7,35.2,30.14,SE,146,5.0,9.0,46,0.00,,,0.00,Wunderground v.1.15,2013-05-06 07:52:00,
2013-05-06 03:57:00,55.7,35.2,30.14,SE,135,5.0,9.0,46,0.00,,,0.00,Wunderground v.1.15,2013-05-06 07:57:00,
2013-05-06 04:02:00,55.7,35.2,30.14,SE,126,8.0,10.0,46,0.00,,,0.00,Wunderground v.1.15,2013-05-06 08:02:00,
2013-05-06 04:07:00,55.6,35.7,30.14,SE,143,4.0,10.0,47,0.00,,,0.00,Wunderground v.1.15,2013-05-06 08:07:00,
2013-05-06 04:12:00,55.6,35.7,30.14,SE,132,4.0,10.0,47,0.00,,,0.00,Wunderground v.1.15,2013-05-06 08:12:00,
2013-05-06 04:17:00,55.4,36.0,30.14,SSE,155,4.0,10.0,48,0.00,,,0.00,Wunderground v.1.15,2013-05-06 08:17:00,
2013-05-06 04:22:00,55.3,35.9,30.14,SSE,149,4.0,12.0,48,0.00,,,0.00,Wunderground v.1.15,2013-05-06 08:22:00,
2013-05-06 04:27:00,55.3,35.9,30.14,SSE,153,2.0,12.0,48,0.00,,,0.00,Wunderground v.1.15,2013-05-06 08:27:00,
2013-05-06 04:32:00,55.3,36.5,30.14,SSE,159,2.0,5.0,49,0.00,,,0.00,Wunderground v.1.15,2013-05-06 08:32:00,
2013-05-06 04:37:00,55.0,36.2,30.14,SSE,159,4.0,6.0,49,0.00,,,0.00,Wunderground v.1.15,2013-05-06 08:37:00,
2013-05-06 04:42:00,54.8,36.5,30.14,SSE,161,5.0,6.0,50,0.00,,,0.00,Wunderground v.1.15,2013-05-06 08:42:00,
2013-05-06 04:47:00,54.8,36.5,30.14,SSE,161,1.0,6.0,50,0.00,,,0.00,Wunderground v.1.15,2013-05-06 08:47:00,
2013-05-06 04:52:00,54.7,36.9,30.14,SSE,161,0.0,3.0,51,0.00,,,0.00,Wunderground v.1.15,2013-05-06 08:52:00,
2013-05-06 04:57:00,54.2,36.9,30.14,SSE,161,0.0,3.0,52,0.00,,,0.00,Wunderground v.1.15,2013-05-06 08:57:00,
2013-05-06 05:02:00,53.6,36.9,30.14,SSE,161,0.0,0.0,53,0.00,,,0.00,Wunderground v.1.15,2013-05-06 09:02:00,
2013-05-06 05:07:00,53.1,36.4,30.14,SSE,161,0.0,0.0,53,0.00,,,0.00,Wunderground v.1.15,2013-05-06 09:07:00,
2013-05-06 05:12:00,52.6,36.4,30.15,SSE,161,0.0,0.0,54,0.00,,,0.00,Wunderground v.1.15,2013-05-06 09:12:00,
2013-05-06 05:17:00,52.5,36.8,30.15,SSE,161,0.0,0.0,55,0.00,,,0.00,Wunderground v.1.15,2013-05-06 09:17:00,
2013-05-06 05:22:00,52.5,37.2,30.15,SSE,161,0.0,0.0,56,0.00,,,0.00,Wunderground v.1.15,2013-05-06 09:22:00,
2013-05-06 05:27:00,52.5,37.2,30.15,SSE,161,0.0,0.0,56,0.00,,,0.00,Wunderground v.1.15,2013-05-06 09:27:00,
2013-05-06 05:32:00,52.5,37.2,30.15,SSE,161,0.0,0.0,56,0.00,,,0.00,Wunderground v.1.15,2013-05-06 09:32:00,
2013-05-06 05:37:00,52.2,37.4,30.15,SSE,161,1.0,2.0,57,0.00,,,0.00,Wunderground v.1.15,2013-05-06 09:37:00,
2013-05-06 05:42:00,52.2,38.3,30.16,SSE,161,0.0,4.0,59,0.00,,,0.00,Wunderground v.1.15,2013-05-06 09:42:00,
2013-05-06 05:47:00,52.2,38.7,30.16,SSE,163,0.0,5.0,60,0.00,,,0.00,Wunderground v.1.15,2013-05-06 09:47:00,
2013-05-06 05:52:00,52.0,39.0,30.16,SSE,165,2.0,4.0,61,0.00,,,0.00,Wunderground v.1.15,2013-05-06 09:52:00,
2013-05-06 05:58:00,52.2,39.6,30.16,SSE,168,4.0,6.0,62,0.00,,,0.00,Wunderground v.1.15,2013-05-06 09:58:00,
2013-05-06 06:03:00,52.6,40.4,30.16,South,171,3.0,13.0,63,0.00,,,0.00,Wunderground v.1.15,2013-05-06 10:03:00,
2013-05-06 06:08:00,52.8,40.5,30.16,SSE,157,3.0,13.0,63,0.00,,,0.00,Wunderground v.1.15,2013-05-06 10:08:00,
2013-05-06 06:13:00,52.8,40.5,30.16,South,176,2.0,9.0,63,0.00,,,0.00,Wunderground v.1.15,2013-05-06 10:13:00,
2013-05-06 06:18:00,52.8,40.5,30.16,South,177,5.0,9.0,63,0.00,,,0.00,Wunderground v.1.15,2013-05-06 10:18:00,
2013-05-06 06:23:00,53.1,40.8,30.16,South,174,3.0,9.0,63,0.00,,,0.00,Wunderground v.1.15,2013-05-06 10:23:00,
2013-05-06 06:28:00,53.2,40.9,30.17,South,171,6.0,9.0,63,0.00,,,0.00,Wunderground v.1.15,2013-05-06 10:28:00,
2013-05-06 06:33:00,53.3,41.0,30.17,South,173,2.0,9.0,63,0.00,,,0.00,Wunderground v.1.15,2013-05-06 10:33:00,
2013-05-06 06:38:00,53.3,40.6,30.17,South,173,4.0,10.0,62,0.00,,,0.00,Wunderground v.1.15,2013-05-06 10:38:00,
2013-05-06 06:43:00,53.2,40.1,30.17,South,170,5.0,5.0,61,0.00,,,0.00,Wunderground v.1.15,2013-05-06 10:43:00,
2013-05-06 06:48:00,52.6,39.9,30.17,SSE,165,1.0,6.0,62,0.00,,,0.00,Wunderground v.1.15,2013-05-06 10:48:00,
2013-05-06 06:53:00,52.5,40.3,30.17,SSE,165,4.0,5.0,63,0.00,,,0.00,Wunderground v.1.15,2013-05-06 10:53:00,
2013-05-06 06:58:00,52.6,40.4,30.17,SSE,165,3.0,7.0,63,0.00,,,0.00,Wunderground v.1.15,2013-05-06 10:58:00,
2013-05-06 07:03:00,52.8,40.5,30.17,South,169,2.0,7.0,63,0.00,,,0.00,Wunderground v.1.15,2013-05-06 11:03:00,
2013-05-06 07:08:00,53.1,40.4,30.17,South,171,2.0,7.0,62,0.00,,,0.00,Wunderground v.1.15,2013-05-06 11:08:00,
2013-05-06 07:13:00,53.6,40.9,30.17,SSE,167,5.0,14.0,62,0.00,,,0.00,Wunderground v.1.15,2013-05-06 11:13:00,
2013-05-06 07:18:00,54.1,40.9,30.17,SSE,161,5.0,14.0,61,0.00,,,0.00,Wunderground v.1.15,2013-05-06 11:18:00,
2013-05-06 07:23:00,54.4,41.2,30.17,South,174,5.0,12.0,61,0.00,,,0.00,Wunderground v.1.15,2013-05-06 11:23:00,
2013-05-06 07:28:00,54.8,41.6,30.18,South,182,1.0,12.0,61,0.00,,,0.00,Wunderground v.1.15,2013-05-06 11:28:00,
2013-05-06 07:33:00,55.1,41.9,30.18,SSW,200,6.0,11.0,61,0.00,,,0.00,Wunderground v.1.15,2013-05-06 11:33:00,
2013-05-06 07:38:00,55.6,42.4,30.18,South,187,10.0,11.0,61,0.00,,,0.00,Wunderground v.1.15,2013-05-06 11:38:00,
2013-05-06 07:43:00,55.7,42.0,30.18,South,174,4.0,11.0,60,0.00,,,0.00,Wunderground v.1.15,2013-05-06 11:43:00,
2013-05-06 07:48:00,56.0,42.3,30.18,SSW,192,5.0,11.0,60,0.00,,,0.00,Wunderground v.1.15,2013-05-06 11:48:00,
2013-05-06 07:53:00,56.0,42.7,30.18,South,182,7.0,11.0,61,0.00,,,0.00,Wunderground v.1.15,2013-05-06 11:53:00,
2013-05-06 07:58:00,56.3,43.0,30.19,SSW,198,7.0,12.0,61,0.00,,,0.00,Wunderground v.1.15,2013-05-06 11:58:00,
2013-05-06 08:03:00,56.2,42.5,30.19,South,181,8.0,12.0,60,0.00,,,0.00,Wunderground v.1.15,2013-05-06 12:03:00,
2013-05-06 08:08:00,56.6,42.9,30.19,SSE,163,7.0,14.0,60,0.00,,,0.00,Wunderground v.1.15,2013-05-06 12:08:00,
2013-05-06 08:13:00,56.7,42.1,30.19,South,180,6.0,15.0,58,0.00,,,0.00,Wunderground v.1.15,2013-05-06 12:13:00,
2013-05-06 08:18:00,56.6,42.0,30.19,SSW,193,5.0,17.0,58,0.00,,,0.00,Wunderground v.1.15,2013-05-06 12:18:00,
2013-05-06 08:23:00,56.7,42.1,30.19,South,186,11.0,19.0,58,0.00,,,0.00,Wunderground v.1.15,2013-05-06 12:23:00,
2013-05-06 08:28:00,56.9,42.3,30.19,SSE,161,13.0,19.0,58,0.00,,,0.00,Wunderground v.1.15,2013-05-06 12:28:00,
2013-05-06 08:33:00,57.0,41.9,30.19,South,175,8.0,15.0,57,0.00,,,0.00,Wunderground v.1.15,2013-05-06 12:33:00,
2013-05-06 08:38:00,57.6,42.5,30.19,South,186,9.0,17.0,57,0.00,,,0.00,Wunderground v.1.15,2013-05-06 12:38:00,
2013-05-06 08:43:00,58.0,42.4,30.19,South,185,9.0,15.0,56,0.00,,,0.00,Wunderground v.1.15,2013-05-06 12:43:00,
2013-05-06 08:49:00,58.3,43.1,30.19,South,184,7.0,15.0,57,0.00,,,0.00,Wunderground v.1.15,2013-05-06 12:49:00,
2013-05-06 08:54:00,58.6,42.5,30.19,South,174,7.0,14.0,55,0.00,,,0.00,Wunderground v.1.15,2013-05-06 12:54:00,
2013-05-06 08:59:00,58.9,42.3,30.19,South,189,11.0,14.0,54,0.00,,,0.00,Wunderground v.1.15,2013-05-06 12:59:00,
2013-05-06 09:04:00,58.7,42.6,30.19,South,183,12.0,14.0,55,0.00,,,0.00,Wunderground v.1.15,2013-05-06 13:04:00,
2013-05-06 09:09:00,59.0,42.8,30.19,South,184,7.0,15.0,55,0.00,,,0.00,Wunderground v.1.15,2013-05-06 13:09:00,
2013-05-06 09:14:00,59.3,43.1,30.19,South,185,11.0,13.0,55,0.00,,,0.00,Wunderground v.1.15,2013-05-06 13:14:00,
2013-05-06 09:19:00,59.2,42.6,30.19,South,184,8.0,14.0,54,0.00,,,0.00,Wunderground v.1.15,2013-05-06 13:19:00,
2013-05-06 09:24:00,59.5,42.8,30.19,South,191,7.0,14.0,54,0.00,,,0.00,Wunderground v.1.15,2013-05-06 13:24:00,
2013-05-06 09:29:00,60.1,43.4,30.18,SSW,194,11.0,14.0,54,0.00,,,0.00,Wunderground v.1.15,2013-05-06 13:29:00,
2013-05-06 09:34:00,60.4,43.7,30.18,South,180,5.0,13.0,54,0.00,,,0.00,Wunderground v.1.15,2013-05-06 13:34:00,
2013-05-06 09:39:00,60.5,43.3,30.18,SSW,198,4.0,13.0,53,0.00,,,0.00,Wunderground v.1.15,2013-05-06 13:39:00,
2013-05-06 09:44:00,60.9,43.6,30.18,South,188,4.0,14.0,53,0.00,,,0.00,Wunderground v.1.15,2013-05-06 13:44:00,
2013-05-06 09:49:00,61.2,43.4,30.18,South,186,3.0,14.0,52,0.00,,,0.00,Wunderground v.1.15,2013-05-06 13:49:00,
2013-05-06 09:54:00,61.5,44.2,30.18,SSW,198,4.0,11.0,53,0.00,,,0.00,Wunderground v.1.15,2013-05-06 13:54:00,
2013-05-06 09:59:00,61.8,43.5,30.17,South,178,11.0,12.0,51,0.00,,,0.00,Wunderground v.1.15,2013-05-06 13:59:00,
2013-05-06 10:04:00,61.8,45.0,30.17,South,171,7.0,10.0,54,0.00,,,0.00,Wunderground v.1.15,2013-05-06 14:04:00,
2013-05-06 10:10:00,62.0,43.7,30.17,SSW,196,5.0,11.0,51,0.00,,,0.00,Wunderground v.1.15,2013-05-06 14:10:00,
2013-05-06 10:15:00,62.4,44.5,30.17,SSW,192,3.0,11.0,52,0.00,,,0.00,Wunderground v.1.15,2013-05-06 14:15:00,
2013-05-06 10:20:00,62.9,44.5,30.17,South,180,5.0,11.0,51,0.00,,,0.00,Wunderground v.1.15,2013-05-06 14:20:00,
2013-05-06 10:25:00,63.1,44.7,30.17,SSE,150,3.0,13.0,51,0.00,,,0.00,Wunderground v.1.15,2013-05-06 14:25:00,
2013-05-06 10:30:00,63.2,45.3,30.17,South,189,10.0,13.0,52,0.00,,,0.00,Wunderground v.1.15,2013-05-06 14:30:00,
2013-05-06 10:35:00,63.4,44.4,30.17,SSW,206,4.0,12.0,50,0.00,,,0.00,Wunderground v.1.15,2013-05-06 14:35:00,
2013-05-06 10:40:00,64.2,46.7,30.17,SSW,203,2.0,12.0,53,0.00,,,0.00,Wunderground v.1.15,2013-05-06 14:40:00,
2013-05-06 10:45:00,64.5,44.4,30.16,South,170,5.0,7.0,48,0.00,,,0.00,Wunderground v.1.15,2013-05-06 14:45:00,
2013-05-06 10:50:00,64.8,45.2,30.16,South,173,6.0,6.0,49,0.00,,,0.00,Wunderground v.1.15,2013-05-06 14:50:00,
2013-05-06 10:55:00,64.8,44.6,30.16,South,187,3.0,10.0,48,0.00,,,0.00,Wunderground v.1.15,2013-05-06 14:55:00,
2013-05-06 11:00:00,65.3,44.0,30.16,SSW,200,0.0,4.0,46,0.00,,,0.00,Wunderground v.1.15,2013-05-06 15:00:00,
2013-05-06 11:05:00,66.3,46.6,30.16,SSW,208,3.0,11.0,49,0.00,,,0.00,Wunderground v.1.15,2013-05-06 15:05:00,
2013-05-06 11:10:00,66.6,46.8,30.16,SW,232,3.0,3.0,49,0.00,,,0.00,Wunderground v.1.15,2013-05-06 15:10:00,
2013-05-06 11:15:00,66.9,44.9,30.16,SW,225,3.0,5.0,45,0.00,,,0.00,Wunderground v.1.15,2013-05-06 15:15:00,
2013-05-06 11:20:00,67.8,45.1,30.16,SW,231,1.0,2.0,44,0.00,,,0.00,Wunderground v.1.15,2013-05-06 15:20:00,
2013-05-06 11:25:00,68.1,44.7,30.16,South,189,7.0,9.0,43,0.00,,,0.00,Wunderground v.1.15,2013-05-06 15:25:00,
2013-05-06 11:30:00,67.3,42.8,30.16,South,178,1.0,4.0,41,0.00,,,0.00,Wunderground v.1.15,2013-05-06 15:30:00,
2013-05-06 11:35:00,67.9,48.0,30.16,SSW,194,4.0,11.0,49,0.00,,,0.00,Wunderground v.1.15,2013-05-06 15:35:00,
2013-05-06 11:40:00,67.9,44.0,30.16,South,190,1.0,5.0,42,0.00,,,0.00,Wunderground v.1.15,2013-05-06 15:40:00,
2013-05-06 11:45:00,68.8,43.5,30.15,SSW,200,3.0,11.0,40,0.00,,,0.00,Wunderground v.1.15,2013-05-06 15:45:00,
2013-05-06 11:50:00,68.9,42.9,30.15,South,190,6.0,10.0,39,0.00,,,0.00,Wunderground v.1.15,2013-05-06 15:50:00,
2013-05-06 11:55:00,69.1,42.4,30.15,SW,219,6.0,13.0,38,0.00,,,0.00,Wunderground v.1.15,2013-05-06 15:55:00,
2013-05-06 12:00:00,69.4,42.7,30.14,SSW,192,5.0,5.0,38,0.00,,,0.00,Wunderground v.1.15,2013-05-06 16:00:00,
2013-05-06 12:06:00,69.6,41.5,30.14,WSW,246,9.0,10.0,36,0.00,,,0.00,Wunderground v.1.15,2013-05-06 16:06:00,
2013-05-06 12:11:00,69.6,40.0,30.14,SW,225,5.0,6.0,34,0.00,,,0.00,Wunderground v.1.15,2013-05-06 16:11:00,
2013-05-06 12:16:00,70.1,40.4,30.14,WSW,249,3.0,9.0,34,0.00,,,0.00,Wunderground v.1.15,2013-05-06 16:16:00,
2013-05-06 12:21:00,70.3,39.8,30.14,WSW,252,2.0,8.0,33,0.00,,,0.00,Wunderground v.1.15,2013-05-06 16:21:00,
2013-05-06 12:26:00,70.6,41.6,30.14,South,188,1.0,11.0,35,0.00,,,0.00,Wunderground v.1.15,2013-05-06 16:26:00,
2013-05-06 12:31:00,70.8,41.0,30.13,South,191,4.0,7.0,34,0.00,,,0.00,Wunderground v.1.15,2013-05-06 16:31:00,
2013-05-06 12:36:00,71.1,41.3,30.13,SSW,192,0.0,11.0,34,0.00,,,0.00,Wunderground v.1.15,2013-05-06 16:36:00,
2013-05-06 12:41:00,71.5,40.1,30.13,South,191,4.0,6.0,32,0.00,,,0.00,Wunderground v.1.15,2013-05-06 16:41:00,
2013-05-06 12:46:00,72.3,39.1,30.12,SW,215,5.0,15.0,30,0.00,,,0.00,Wunderground v.1.15,2013-05-06 16:46:00,
2013-05-06 12:52:00,72.7,40.3,30.12,SSW,202,9.0,9.0,31,0.00,,,0.00,Wunderground v.1.15,2013-05-06 16:52:00,
2013-05-06 12:57:00,73.2,43.1,30.12,WSW,238,6.0,11.0,34,0.00,,,0.00,Wunderground v.1.15,2013-05-06 16:57:00,
2013-05-06 13:02:00,73.0,38.0,30.12,SSW,194,6.0,10.0,28,0.00,,,0.00,Wunderground v.1.15,2013-05-06 17:02:00,
2013-05-06 13:07:00,73.2,37.2,30.12,SSW,193,0.0,13.0,27,0.00,,,0.00,Wunderground v.1.15,2013-05-06 17:07:00,
2013-05-06 13:12:00,73.9,39.6,30.11,SSE,163,5.0,11.0,29,0.00,,,0.00,Wunderground v.1.15,2013-05-06 17:12:00,
2013-05-06 13:17:00,73.9,39.6,30.11,SSW,194,5.0,13.0,29,0.00,,,0.00,Wunderground v.1.15,2013-05-06 17:17:00,
2013-05-06 13:22:00,73.9,31.5,30.11,South,180,4.0,10.0,21,0.00,,,0.00,Wunderground v.1.15,2013-05-06 17:22:00,
2013-05-06 13:27:00,73.9,33.7,30.11,SW,236,4.0,11.0,23,0.00,,,0.00,Wunderground v.1.15,2013-05-06 17:27:00,
2013-05-06 13:32:00,73.9,34.8,30.11,SW,216,4.0,14.0,24,0.00,,,0.00,Wunderground v.1.15,2013-05-06 17:32:00,
2013-05-06 13:37:00,74.6,36.4,30.11,South,187,9.0,14.0,25,0.00,,,0.00,Wunderground v.1.15,2013-05-06 17:37:00,
2013-05-06 13:42:00,74.7,37.5,30.11,WSW,246,0.0,10.0,26,0.00,,,0.00,Wunderground v.1.15,2013-05-06 17:42:00,
2013-05-06 13:47:00,74.7,33.3,30.11,WSW,237,7.0,12.0,22,0.00,,,0.00,Wunderground v.1.15,2013-05-06 17:47:00,
2013-05-06 13:52:00,74.7,29.7,30.11,SW,233,10.0,11.0,19,0.00,,,0.00,Wunderground v.1.15,2013-05-06 17:52:00,
2013-05-06 13:57:00,75.3,28.8,30.10,SSW,194,2.0,11.0,18,0.00,,,0.00,Wunderground v.1.15,2013-05-06 17:57:00,
2013-05-06 14:02:00,75.6,29.1,30.10,SW,215,5.0,7.0,18,0.00,,,0.00,Wunderground v.1.15,2013-05-06 18:02:00,
2013-05-06 14:07:00,75.3,27.4,30.10,South,184,7.0,13.0,17,0.00,,,0.00,Wunderground v.1.15,2013-05-06 18:07:00,
2013-05-06 14:12:00,75.6,30.4,30.09,SW,219,4.0,9.0,19,0.00,,,0.00,Wunderground v.1.15,2013-05-06 18:12:00,
2013-05-06 14:17:00,76.1,32.1,30.09,SW,215,4.0,9.0,20,0.00,,,0.00,Wunderground v.1.15,2013-05-06 18:17:00,
2013-05-06 14:22:00,75.6,32.9,30.09,SSW,192,5.0,9.0,21,0.00,,,0.00,Wunderground v.1.15,2013-05-06 18:22:00,
2013-05-06 14:27:00,75.6,32.9,30.09,SW,234,6.0,12.0,21,0.00,,,0.00,Wunderground v.1.15,2013-05-06 18:27:00,
2013-05-06 14:32:00,75.4,31.5,30.09,SSW,203,3.0,9.0,20,0.00,,,0.00,Wunderground v.1.15,2013-05-06 18:32:00,
2013-05-06 14:37:00,76.0,35.5,30.09,SW,227,5.0,11.0,23,0.00,,,0.00,Wunderground v.1.15,2013-05-06 18:37:00,
2013-05-06 14:42:00,76.0,30.7,30.08,SSW,199,3.0,9.0,19,0.00,,,0.00,Wunderground v.1.15,2013-05-06 18:42:00,
2013-05-06 14:47:00,76.0,30.7,30.08,SSW,194,9.0,11.0,19,0.00,,,0.00,Wunderground v.1.15,2013-05-06 18:47:00,
2013-05-06 14:53:00,75.6,31.7,30.08,South,189,2.0,7.0,20,0.00,,,0.00,Wunderground v.1.15,2013-05-06 18:53:00,
2013-05-06 14:58:00,75.8,31.8,30.08,South,179,2.0,12.0,20,0.00,,,0.00,Wunderground v.1.15,2013-05-06 18:58:00,
2013-05-06 15:03:00,75.8,34.2,30.08,SW,235,4.0,11.0,22,0.00,,,0.00,Wunderground v.1.15,2013-05-06 19:03:00,
2013-05-06 15:08:00,76.3,36.8,30.08,SW,229,4.0,11.0,24,0.00,,,0.00,Wunderground v.1.15,2013-05-06 19:08:00,
2013-05-06 15:13:00,76.5,32.4,30.07,West,259,10.0,11.0,20,0.00,,,0.00,Wunderground v.1.15,2013-05-06 19:13:00,
2013-05-06 15:18:00,76.7,32.6,30.07,WSW,257,1.0,11.0,20,0.00,,,0.00,Wunderground v.1.15,2013-05-06 19:18:00,
2013-05-06 15:23:00,76.5,31.1,30.07,South,188,2.0,11.0,19,0.00,,,0.00,Wunderground v.1.15,2013-05-06 19:23:00,
2013-05-06 15:28:00,76.7,32.6,30.06,South,179,1.0,11.0,20,0.00,,,0.00,Wunderground v.1.15,2013-05-06 19:28:00,
2013-05-06 15:33:00,76.7,33.8,30.06,SW,232,5.0,12.0,21,0.00,,,0.00,Wunderground v.1.15,2013-05-06 19:33:00,
2013-05-06 15:38:00,76.5,32.4,30.06,SW,223,0.0,12.0,20,0.00,,,0.00,Wunderground v.1.15,2013-05-06 19:38:00,
2013-05-06 15:43:00,77.2,33.0,30.06,SW,227,1.0,10.0,20,0.00,,,0.00,Wunderground v.1.15,2013-05-06 19:43:00,
2013-05-06 15:48:00,76.7,31.3,30.06,SSW,202,7.0,12.0,19,0.00,,,0.00,Wunderground v.1.15,2013-05-06 19:48:00,
2013-05-06 15:53:00,76.5,29.8,30.06,SSW,194,5.0,14.0,18,0.00,,,0.00,Wunderground v.1.15,2013-05-06 19:53:00,
2013-05-06 15:58:00,76.5,29.8,30.05,SSE,161,7.0,14.0,18,0.00,,,0.00,Wunderground v.1.15,2013-05-06 19:58:00,
2013-05-06 16:03:00,76.7,28.6,30.05,South,184,5.0,11.0,17,0.00,,,0.00,Wunderground v.1.15,2013-05-06 20:03:00,
2013-05-06 16:08:00,76.8,28.7,30.05,SSW,202,3.0,13.0,17,0.00,,,0.00,Wunderground v.1.15,2013-05-06 20:08:00,
2013-05-06 16:13:00,76.8,28.7,30.05,SSW,194,4.0,12.0,17,0.00,,,0.00,Wunderground v.1.15,2013-05-06 20:13:00,
2013-05-06 16:18:00,77.2,30.4,30.05,South,173,5.0,12.0,18,0.00,,,0.00,Wunderground v.1.15,2013-05-06 20:18:00,
2013-05-06 16:23:00,77.0,27.3,30.05,South,182,10.0,14.0,16,0.00,,,0.00,Wunderground v.1.15,2013-05-06 20:23:00,
2013-05-06 16:28:00,76.8,24.0,30.04,South,182,7.0,14.0,14,0.00,,,0.00,Wunderground v.1.15,2013-05-06 20:28:00,
2013-05-06 16:33:00,77.0,24.1,30.04,SSE,165,9.0,12.0,14,0.00,,,0.00,Wunderground v.1.15,2013-05-06 20:33:00,
2013-05-06 16:38:00,77.2,25.9,30.04,South,173,4.0,12.0,15,0.00,,,0.00,Wunderground v.1.15,2013-05-06 20:38:00,
2013-05-06 16:43:00,77.2,22.5,30.03,South,189,6.0,11.0,13,0.00,,,0.00,Wunderground v.1.15,2013-05-06 20:43:00,
2013-05-06 16:49:00,77.2,22.5,30.03,SSW,206,2.0,11.0,13,0.00,,,0.00,Wunderground v.1.15,2013-05-06 20:49:00,
2013-05-06 16:54:00,77.2,20.6,30.03,South,178,6.0,13.0,12,0.00,,,0.00,Wunderground v.1.15,2013-05-06 20:54:00,
2013-05-06 16:59:00,77.2,20.6,30.03,SSW,198,5.0,13.0,12,0.00,,,0.00,Wunderground v.1.15,2013-05-06 20:59:00,
2013-05-06 17:04:00,77.2,22.5,30.03,South,180,10.0,16.0,13,0.00,,,0.00,Wunderground v.1.15,2013-05-06 21:04:00,
2013-05-06 17:09:00,77.4,22.7,30.03,SSE,153,11.0,16.0,13,0.00,,,0.00,Wunderground v.1.15,2013-05-06 21:09:00,
2013-05-06 17:14:00,77.6,22.8,30.03,South,189,3.0,9.0,13,0.00,,,0.00,Wunderground v.1.15,2013-05-06 21:14:00,
2013-05-06 17:19:00,77.4,20.8,30.03,SSW,198,6.0,11.0,12,0.00,,,0.00,Wunderground v.1.15,2013-05-06 21:19:00,
2013-05-06 17:23:00,77.2,18.6,30.03,South,182,4.0,15.0,11,0.00,,,0.00,Wunderground v.1.15,2013-05-06 21:23:00,
2013-05-06 17:28:00,77.4,20.8,30.02,South,189,4.0,15.0,12,0.00,,,0.00,Wunderground v.1.15,2013-05-06 21:28:00,
2013-05-06 17:34:00,77.2,18.6,30.02,South,176,11.0,14.0,11,0.00,,,0.00,Wunderground v.1.15,2013-05-06 21:34:00,
2013-05-06 17:39:00,77.2,18.6,30.02,South,178,7.0,14.0,11,0.00,,,0.00,Wunderground v.1.15,2013-05-06 21:39:00,
2013-05-06 17:44:00,77.2,20.6,30.02,South,178,11.0,12.0,12,0.00,,,0.00,Wunderground v.1.15,2013-05-06 21:44:00,
2013-05-06 17:49:00,77.2,18.6,30.02,SSE,165,4.0,13.0,11,0.00,,,0.00,Wunderground v.1.15,2013-05-06 21:49:00,
2013-05-06 17:54:00,77.0,18.4,30.02,South,180,12.0,16.0,11,0.00,,,0.00,Wunderground v.1.15,2013-05-06 21:54:00,
2013-05-06 17:59:00,77.0,18.4,30.02,South,180,4.0,16.0,11,0.00,,,0.00,Wunderground v.1.15,2013-05-06 21:59:00,
2013-05-06 18:04:00,77.0,18.4,30.02,South,185,4.0,10.0,11,0.00,,,0.00,Wunderground v.1.15,2013-05-06 22:04:00,
2013-05-06 18:09:00,76.8,22.2,30.02,SSW,194,3.0,12.0,13,0.00,,,0.00,Wunderground v.1.15,2013-05-06 22:09:00,
2013-05-06 18:14:00,76.8,20.3,30.01,SSW,193,8.0,11.0,12,0.00,,,0.00,Wunderground v.1.15,2013-05-06 22:14:00,
2013-05-06 18:19:00,76.8,22.2,30.01,South,187,8.0,11.0,13,0.00,,,0.00,Wunderground v.1.15,2013-05-06 22:19:00,
2013-05-06 18:24:00,76.7,20.2,30.01,South,183,3.0,11.0,12,0.00,,,0.00,Wunderground v.1.15,2013-05-06 22:24:00,
2013-05-06 18:29:00,76.7,22.1,30.01,SSW,197,3.0,11.0,13,0.00,,,0.00,Wunderground v.1.15,2013-05-06 22:29:00,
2013-05-06 18:34:00,76.3,25.2,30.01,SSW,196,3.0,9.0,15,0.00,,,0.00,Wunderground v.1.15,2013-05-06 22:34:00,
2013-05-06 18:39:00,76.3,25.2,30.01,South,190,4.0,9.0,15,0.00,,,0.00,Wunderground v.1.15,2013-05-06 22:39:00,
2013-05-06 18:44:00,76.0,25.0,30.00,South,179,3.0,10.0,15,0.00,,,0.00,Wunderground v.1.15,2013-05-06 22:44:00,
2013-05-06 18:50:00,76.0,25.0,30.00,South,179,1.0,10.0,15,0.00,,,0.00,Wunderground v.1.15,2013-05-06 22:50:00,
2013-05-06 18:55:00,75.8,26.4,30.00,South,179,4.0,4.0,16,0.00,,,0.00,Wunderground v.1.15,2013-05-06 22:55:00,
2013-05-06 19:00:00,75.4,24.5,30.00,South,178,6.0,9.0,15,0.00,,,0.00,Wunderground v.1.15,2013-05-06 23:00:00,
2013-05-06 19:05:00,75.1,25.8,30.00,South,174,2.0,7.0,16,0.00,,,0.00,Wunderground v.1.15,2013-05-06 23:05:00,
2013-05-06 19:10:00,75.1,22.6,30.00,South,181,1.0,10.0,14,0.00,,,0.00,Wunderground v.1.15,2013-05-06 23:10:00,
2013-05-06 19:15:00,74.7,23.9,30.00,South,180,1.0,4.0,15,0.00,,,0.00,Wunderground v.1.15,2013-05-06 23:15:00,
2013-05-06 19:20:00,74.6,23.9,30.00,South,179,1.0,6.0,15,0.00,,,0.00,Wunderground v.1.15,2013-05-06 23:20:00,
2013-05-06 19:25:00,74.0,24.9,30.00,South,179,1.0,4.0,16,0.00,,,0.00,Wunderground v.1.15,2013-05-06 23:25:00,
2013-05-06 19:30:00,73.9,23.3,30.00,South,170,1.0,2.0,15,0.00,,,0.00,Wunderground v.1.15,2013-05-06 23:30:00,
2013-05-06 19:35:00,73.3,22.8,30.00,South,170,1.0,5.0,15,0.00,,,0.00,Wunderground v.1.15,2013-05-06 23:35:00,
2013-05-06 19:40:00,73.0,22.6,30.00,South,171,2.0,2.0,15,0.00,,,0.00,Wunderground v.1.15,2013-05-06 23:40:00,
2013-05-06 19:45:00,72.7,22.3,30.01,South,169,2.0,6.0,15,0.00,,,0.00,Wunderground v.1.15,2013-05-06 23:45:00,
2013-05-06 19:50:00,72.3,22.0,30.01,South,169,2.0,2.0,15,0.00,,,0.00,Wunderground v.1.15,2013-05-06 23:50:00,
2013-05-06 19:55:00,71.8,21.6,30.01,South,169,3.0,6.0,15,0.00,,,0.00,Wunderground v.1.15,2013-05-06 23:55:00,
2013-05-06 20:00:00,71.5,21.4,30.01,South,175,3.0,3.0,15,0.00,,,0.00,Wunderground v.1.15,2013-05-07 00:00:00,
2013-05-06 20:05:00,71.3,21.2,30.01,South,175,2.0,6.0,15,0.00,,,0.00,Wunderground v.1.15,2013-05-07 00:05:00,
2013-05-06 20:10:00,70.8,22.3,30.01,South,175,2.0,3.0,16,0.00,,,0.00,Wunderground v.1.15,2013-05-07 00:10:00,
2013-05-06 20:15:00,70.4,22.0,30.01,South,174,5.0,6.0,16,0.00,,,0.00,Wunderground v.1.15,2013-05-07 00:15:00,
2013-05-06 20:20:00,70.1,21.8,30.01,South,173,3.0,3.0,16,0.00,,,0.00,Wunderground v.1.15,2013-05-07 00:20:00,
2013-05-06 20:25:00,69.4,21.2,30.01,South,173,0.0,4.0,16,0.00,,,0.00,Wunderground v.1.15,2013-05-07 00:25:00,
2013-05-06 20:30:00,68.4,21.8,30.02,South,173,3.0,3.0,17,0.00,,,0.00,Wunderground v.1.15,2013-05-07 00:30:00,
2013-05-06 20:35:00,68.1,23.0,30.02,SSE,168,5.0,6.0,18,0.00,,,0.00,Wunderground v.1.15,2013-05-07 00:35:00,
2013-05-06 20:40:00,67.8,22.7,30.02,SSE,167,0.0,2.0,18,0.00,,,0.00,Wunderground v.1.15,2013-05-07 00:40:00,
2013-05-06 20:45:00,67.3,23.6,30.02,SSE,167,0.0,5.0,19,0.00,,,0.00,Wunderground v.1.15,2013-05-07 00:45:00,
2013-05-06 20:50:00,66.9,23.3,30.02,SSE,159,4.0,6.0,19,0.00,,,0.00,Wunderground v.1.15,2013-05-07 00:50:00,
2013-05-06 20:55:00,66.8,23.2,30.02,SSE,148,5.0,9.0,19,0.00,,,0.00,Wunderground v.1.15,2013-05-07 00:55:00,
2013-05-06 21:00:00,66.4,24.1,30.02,SE,137,3.0,6.0,20,0.00,,,0.00,Wunderground v.1.15,2013-05-07 01:00:00,
2013-05-06 21:05:00,66.4,22.8,30.02,SE,137,5.0,10.0,19,0.00,,,0.00,Wunderground v.1.15,2013-05-07 01:05:00,
2013-05-06 21:10:00,66.1,22.6,30.02,SE,142,6.0,9.0,19,0.00,,,0.00,Wunderground v.1.15,2013-05-07 01:10:00,
2013-05-06 21:15:00,65.6,23.4,30.03,SE,144,2.0,9.0,20,0.00,,,0.00,Wunderground v.1.15,2013-05-07 01:15:00,
2013-05-06 21:20:00,65.2,24.2,30.03,SE,146,2.0,4.0,21,0.00,,,0.00,Wunderground v.1.15,2013-05-07 01:20:00,
2013-05-06 21:25:00,64.8,22.7,30.03,SE,146,3.0,7.0,20,0.00,,,0.00,Wunderground v.1.15,2013-05-07 01:25:00,
2013-05-06 21:31:00,64.3,23.5,30.03,SE,146,1.0,3.0,21,0.00,,,0.00,Wunderground v.1.15,2013-05-07 01:31:00,
2013-05-06 21:36:00,64.2,23.4,30.03,SE,146,3.0,7.0,21,0.00,,,0.00,Wunderground v.1.15,2013-05-07 01:36:00,
2013-05-06 21:41:00,64.0,23.2,30.03,SE,146,0.0,3.0,21,0.00,,,0.00,Wunderground v.1.15,2013-05-07 01:41:00,
2013-05-06 21:46:00,63.5,23.9,30.04,SE,146,2.0,5.0,22,0.00,,,0.00,Wunderground v.1.15,2013-05-07 01:46:00,
2013-05-06 21:51:00,63.4,23.8,30.04,SE,146,3.0,3.0,22,0.00,,,0.00,Wunderground v.1.15,2013-05-07 01:51:00,
2013-05-06 21:56:00,63.4,22.7,30.04,SSE,148,5.0,7.0,21,0.00,,,0.00,Wunderground v.1.15,2013-05-07 01:56:00,
2013-05-06 22:01:00,63.4,22.7,30.04,SSE,151,1.0,4.0,21,0.00,,,0.00,Wunderground v.1.15,2013-05-07 02:01:00,
2013-05-06 22:06:00,63.2,23.7,30.04,SSE,151,3.0,5.0,22,0.00,,,0.00,Wunderground v.1.15,2013-05-07 02:06:00,
2013-05-06 22:11:00,63.2,23.7,30.04,SSE,151,3.0,4.0,22,0.00,,,0.00,Wunderground v.1.15,2013-05-07 02:11:00,
2013-05-06 22:16:00,62.7,23.3,30.05,SSE,151,1.0,5.0,22,0.00,,,0.00,Wunderground v.1.15,2013-05-07 02:16:00,
2013-05-06 22:21:00,62.6,23.2,30.05,SSE,151,1.0,3.0,22,0.00,,,0.00,Wunderground v.1.15,2013-05-07 02:21:00,
2013-05-06 22:26:00,62.1,23.8,30.05,SSE,152,0.0,4.0,23,0.00,,,0.00,Wunderground v.1.15,2013-05-07 02:26:00,
2013-05-06 22:31:00,62.0,23.7,30.05,SSE,152,2.0,4.0,23,0.00,,,0.00,Wunderground v.1.15,2013-05-07 02:31:00,
2013-05-06 22:36:00,61.6,24.4,30.05,SSE,152,2.0,4.0,24,0.00,,,0.00,Wunderground v.1.15,2013-05-07 02:36:00,
2013-05-06 22:41:00,61.3,24.2,30.05,SSE,152,2.0,3.0,24,0.00,,,0.00,Wunderground v.1.15,2013-05-07 02:41:00,
2013-05-06 22:46:00,61.3,25.1,30.05,SSE,151,4.0,6.0,25,0.00,,,0.00,Wunderground v.1.15,2013-05-07 02:46:00,
2013-05-06 22:51:00,61.5,25.3,30.05,SSE,151,3.0,4.0,25,0.00,,,0.00,Wunderground v.1.15,2013-05-07 02:51:00,
2013-05-06 22:56:00,61.5,25.3,30.05,SSE,150,2.0,8.0,25,0.00,,,0.00,Wunderground v.1.15,2013-05-07 02:56:00,
2013-05-06 23:01:00,61.3,26.1,30.05,SSE,153,2.0,3.0,26,0.00,,,0.00,Wunderground v.1.15,2013-05-07 03:01:00,
2013-05-06 23:06:00,61.2,26.0,30.05,SSE,155,3.0,6.0,26,0.00,,,0.00,Wunderground v.1.15,2013-05-07 03:06:00,
2013-05-06 23:11:00,61.0,26.7,30.05,SSE,155,2.0,5.0,27,0.00,,,0.00,Wunderground v.1.15,2013-05-07 03:11:00,
2013-05-06 23:16:00,60.7,26.5,30.06,SSE,155,4.0,6.0,27,0.00,,,0.00,Wunderground v.1.15,2013-05-07 03:16:00,
2013-05-06 23:21:00,60.5,27.2,30.06,SSE,156,3.0,6.0,28,0.00,,,0.00,Wunderground v.1.15,2013-05-07 03:21:00,
2013-05-06 23:26:00,60.1,26.0,30.06,SSE,155,4.0,6.0,27,0.00,,,0.00,Wunderground v.1.15,2013-05-07 03:26:00,
2013-05-06 23:31:00,59.9,26.7,30.05,SSE,156,1.0,5.0,28,0.00,,,0.00,Wunderground v.1.15,2013-05-07 03:31:00,
2013-05-06 23:36:00,59.8,27.4,30.05,SSE,156,3.0,7.0,29,0.00,,,0.00,Wunderground v.1.15,2013-05-07 03:36:00,
2013-05-06 23:41:00,59.8,28.3,30.05,SE,145,3.0,9.0,30,0.00,,,0.00,Wunderground v.1.15,2013-05-07 03:41:00,
2013-05-06 23:46:00,59.8,29.1,30.06,SSE,150,6.0,12.0,31,0.00,,,0.00,Wunderground v.1.15,2013-05-07 03:46:00,
2013-05-06 23:51:00,59.9,29.2,30.06,SE,138,11.0,11.0,31,0.00,,,0.00,Wunderground v.1.15,2013-05-07 03:51:00,
2013-05-06 23:56:00,59.9,29.9,30.06,SE,141,10.0,12.0,32,0.00,,,0.00,Wunderground v.1.15,2013-05-07 03:56:00,